Location: Buckeye Ditch
(40.9104°N, 122.9517°W)
Time: 22:07:51
(UTC+00:00)

Transit 2A - Pass Details

Date: 21 May 2025
Orbit: 599 x 947 km, 66.7° (Epoch: 20 June)

Event Time Altitude Azimuth Distance (km) Brightness Sun altitude
Rises 23:57:56 0° 329° (NNW) 2,892 9.3 37.5°
Reaches altitude 10° 00:00:08 10° 328° (NNW) 2,009 8.6 37.1°
Maximum altitude 00:04:38 78° 243° (WSW) 678 6.7 36.2°
Drops below altitude 10° 00:09:31 10° 156° (SSE) 2,168 8.3 35.3°
Sets 00:11:57 0° 156° (SSE) 3,140 9.0 34.8°
